Wetterdaten: Samstag, 14.08.2010
Datum Zeit Temp. A. Feuchte A. Luftdruck Regen Wind Richtung Richtung Sonnenschein UV Solar Windben
14.08.2010 00:00 15,4 C 85 % 1016,3 hPa 0,0 mm 0,0 km/h (0 Bft) O 80 0 min 0 UV-I 0 W/m 0,0 km/h (0 Bft)
14.08.2010 00:10 15,3 C 86 % 1016,5 hPa 0,0 mm 0,0 km/h (0 Bft) O 80 0 min 0 UV-I 0 W/m 0,0 km/h (0 Bft)
14.08.2010 00:20 15,1 C 85 % 1016,4 hPa 0,0 mm 0,0 km/h (0 Bft) O 80 0 min 0 UV-I 0 W/m 0,0 km/h (0 Bft)
14.08.2010 00:30 15,1 C 87 % 1016,4 hPa 0,0 mm 0,0 km/h (0 Bft) O 80 0 min 0 UV-I 0 W/m 1,6 km/h (1 Bft)
14.08.2010 00:40 15,1 C 87 % 1016,5 hPa 0,0 mm 0,6 km/h (0 Bft) O 80 0 min 0 UV-I 0 W/m 3,2 km/h (1 Bft)
14.08.2010 00:50 15,1 C 87 % 1016,4 hPa 0,0 mm 0,0 km/h (0 Bft) O 80 0 min 0 UV-I 0 W/m 0,0 km/h (0 Bft)
14.08.2010 01:00 15,1 C 87 % 1016,3 hPa 0,0 mm 0,0 km/h (0 Bft) O 80 0 min 0 UV-I 0 W/m 0,0 km/h (0 Bft)
14.08.2010 01:10 15,1 C 87 % 1016,3 hPa 0,0 mm 0,0 km/h (0 Bft) O 80 0 min 0 UV-I 0 W/m 0,0 km/h (0 Bft)
14.08.2010 01:20 14,9 C 88 % 1016,3 hPa 0,0 mm 0,0 km/h (0 Bft) O 80 0 min 0 UV-I 0 W/m 0,0 km/h (0 Bft)
14.08.2010 01:30 15,1 C 89 % 1016,3 hPa 0,0 mm 0,0 km/h (0 Bft) O 80 0 min 0 UV-I 0 W/m 0,0 km/h (0 Bft)
14.08.2010 01:40 15,1 C 89 % 1016,3 hPa 0,0 mm 0,0 km/h (0 Bft) O 80 0 min 0 UV-I 0 W/m 0,0 km/h (0 Bft)
14.08.2010 01:50 14,9 C 89 % 1016,3 hPa 0,0 mm 0,0 km/h (0 Bft) O 80 0 min 0 UV-I 0 W/m 1,6 km/h (1 Bft)
14.08.2010 02:00 14,8 C 89 % 1016,3 hPa 0,0 mm 0,0 km/h (0 Bft) O 80 0 min 0 UV-I 0 W/m 1,6 km/h (1 Bft)
14.08.2010 02:10 14,7 C 89 % 1016,2 hPa 0,0 mm 0,0 km/h (0 Bft) O 80 0 min 0 UV-I 0 W/m 0,0 km/h (0 Bft)
14.08.2010 02:20 14,6 C 89 % 1016,2 hPa 0,0 mm 0,0 km/h (0 Bft) O 80 0 min 0 UV-I 0 W/m 0,0 km/h (0 Bft)
14.08.2010 02:30 14,4 C 89 % 1016,1 hPa 0,0 mm 0,0 km/h (0 Bft) O 80 0 min 0 UV-I 0 W/m 0,0 km/h (0 Bft)
14.08.2010 02:40 14,3 C 90 % 1016,0 hPa 0,0 mm 0,0 km/h (0 Bft) O 80 0 min 0 UV-I 0 W/m 0,0 km/h (0 Bft)
14.08.2010 02:50 14,2 C 90 % 1016,1 hPa 0,0 mm 0,0 km/h (0 Bft) O 80 0 min 0 UV-I 0 W/m 0,0 km/h (0 Bft)
14.08.2010 03:00 13,9 C 90 % 1016,2 hPa 0,0 mm 0,0 km/h (0 Bft) O 80 0 min 0 UV-I 0 W/m 0,0 km/h (0 Bft)
14.08.2010 03:10 14,0 C 91 % 1016,3 hPa 0,0 mm 0,0 km/h (0 Bft) O 80 0 min 0 UV-I 0 W/m 1,6 km/h (1 Bft)
14.08.2010 03:20 13,9 C 90 % 1016,4 hPa 0,0 mm 0,0 km/h (0 Bft) O 80 0 min 0 UV-I 0 W/m 0,0 km/h (0 Bft)
14.08.2010 03:30 13,6 C 90 % 1016,4 hPa 0,0 mm 0,0 km/h (0 Bft) O 80 0 min 0 UV-I 0 W/m 0,0 km/h (0 Bft)
14.08.2010 03:40 13,4 C 91 % 1016,3 hPa 0,0 mm 0,0 km/h (0 Bft) O 80 0 min 0 UV-I 0 W/m 1,6 km/h (1 Bft)
14.08.2010 03:50 13,4 C 91 % 1016,2 hPa 0,0 mm 0,0 km/h (0 Bft) O 80 0 min 0 UV-I 0 W/m 1,6 km/h (1 Bft)
14.08.2010 04:00 13,3 C 91 % 1016,4 hPa 0,0 mm 0,2 km/h (0 Bft) O 80 0 min 0 UV-I 0 W/m 3,2 km/h (1 Bft)
14.08.2010 04:10 13,2 C 91 % 1016,3 hPa 0,0 mm 0,2 km/h (0 Bft) O 80 0 min 0 UV-I 0 W/m 3,2 km/h (1 Bft)
14.08.2010 04:20 13,1 C 91 % 1016,4 hPa 0,0 mm 0,0 km/h (0 Bft) O 80 0 min 0 UV-I 0 W/m 0,0 km/h (0 Bft)
14.08.2010 04:30 13,1 C 92 % 1016,1 hPa 0,0 mm 0,0 km/h (0 Bft) O 80 0 min 0 UV-I 0 W/m 0,0 km/h (0 Bft)
14.08.2010 04:40 12,8 C 92 % 1016,0 hPa 0,0 mm 0,0 km/h (0 Bft) O 80 0 min 0 UV-I 0 W/m 0,0 km/h (0 Bft)
14.08.2010 04:50 12,8 C 92 % 1016,0 hPa 0,0 mm 0,0 km/h (0 Bft) O 80 0 min 0 UV-I 0 W/m 0,0 km/h (0 Bft)
14.08.2010 05:00 12,7 C 92 % 1016,1 hPa 0,0 mm 0,0 km/h (0 Bft) O 80 0 min 0 UV-I 0 W/m 1,6 km/h (1 Bft)
14.08.2010 05:10 12,7 C 92 % 1016,1 hPa 0,0 mm 0,0 km/h (0 Bft) O 80 0 min 0 UV-I 0 W/m 0,0 km/h (0 Bft)
14.08.2010 05:20 12,5 C 92 % 1016,2 hPa 0,0 mm 0,0 km/h (0 Bft) O 80 0 min 0 UV-I 0 W/m 0,0 km/h (0 Bft)
14.08.2010 05:30 12,5 C 92 % 1016,3 hPa 0,0 mm 0,0 km/h (0 Bft) O 80 0 min 0 UV-I 0 W/m 0,0 km/h (0 Bft)
14.08.2010 05:40 12,4 C 92 % 1016,5 hPa 0,0 mm 0,0 km/h (0 Bft) O 80 0 min 0 UV-I 0 W/m 0,0 km/h (0 Bft)
14.08.2010 05:50 12,4 C 92 % 1016,6 hPa 0,0 mm 0,0 km/h (0 Bft) O 80 0 min 0 UV-I 0 W/m 0,0 km/h (0 Bft)
14.08.2010 06:00 12,3 C 92 % 1016,6 hPa 0,0 mm 0,0 km/h (0 Bft) O 80 0 min 0 UV-I 0 W/m 0,0 km/h (0 Bft)
14.08.2010 06:10 12,2 C 92 % 1016,5 hPa 0,0 mm 0,0 km/h (0 Bft) O 80 0 min 0 UV-I 0 W/m 0,0 km/h (0 Bft)
14.08.2010 06:20 12,1 C 92 % 1016,4 hPa 0,0 mm 0,0 km/h (0 Bft) O 80 0 min 0 UV-I 0 W/m 0,0 km/h (0 Bft)
14.08.2010 06:30 12,2 C 93 % 1016,5 hPa 0,0 mm 0,0 km/h (0 Bft) O 80 0 min 0 UV-I 0 W/m 1,6 km/h (1 Bft)
14.08.2010 06:40 12,1 C 92 % 1016,6 hPa 0,0 mm 0,0 km/h (0 Bft) O 81 0 min 0 UV-I 5 W/m 0,0 km/h (0 Bft)
14.08.2010 06:50 12,1 C 92 % 1016,7 hPa 0,0 mm 0,0 km/h (0 Bft) O 81 0 min 0 UV-I 9 W/m 0,0 km/h (0 Bft)
14.08.2010 07:00 12,2 C 93 % 1016,7 hPa 0,0 mm 0,0 km/h (0 Bft) O 80 0 min 0 UV-I 21 W/m 0,0 km/h (0 Bft)
14.08.2010 07:10 12,3 C 93 % 1016,7 hPa 0,0 mm 0,0 km/h (0 Bft) O 81 0 min 0 UV-I 38 W/m 1,6 km/h (1 Bft)
14.08.2010 07:20 12,7 C 93 % 1016,6 hPa 0,0 mm 0,0 km/h (0 Bft) O 80 0 min 0 UV-I 48 W/m 1,6 km/h (1 Bft)
14.08.2010 07:30 13,1 C 93 % 1016,7 hPa 0,0 mm 0,0 km/h (0 Bft) O 82 0 min 0 UV-I 76 W/m 1,6 km/h (1 Bft)
14.08.2010 07:40 13,4 C 93 % 1016,8 hPa 0,0 mm 0,0 km/h (0 Bft) O 83 0 min 0 UV-I 112 W/m 1,6 km/h (1 Bft)
14.08.2010 07:50 13,7 C 93 % 1016,9 hPa 0,0 mm 0,0 km/h (0 Bft) O 90 10 min 1 UV-I 146 W/m 1,6 km/h (1 Bft)
14.08.2010 08:00 14,3 C 93 % 1016,9 hPa 0,0 mm 0,0 km/h (0 Bft) O 84 10 min 1 UV-I 159 W/m 0,0 km/h (0 Bft)
14.08.2010 08:10 14,4 C 92 % 1016,8 hPa 0,0 mm 0,0 km/h (0 Bft) N 0 10 min 1 UV-I 181 W/m 0,0 km/h (0 Bft)
14.08.2010 08:20 14,8 C 92 % 1016,9 hPa 0,0 mm 0,0 km/h (0 Bft) O 90 10 min 1 UV-I 206 W/m 1,6 km/h (1 Bft)
14.08.2010 08:30 15,3 C 90 % 1016,8 hPa 0,0 mm 0,0 km/h (0 Bft) N 0 10 min 1 UV-I 236 W/m 0,0 km/h (0 Bft)
14.08.2010 08:40 15,8 C 88 % 1016,9 hPa 0,0 mm 0,0 km/h (0 Bft) O 90 10 min 1 UV-I 260 W/m 3,2 km/h (1 Bft)
14.08.2010 08:50 16,4 C 87 % 1016,8 hPa 0,0 mm 0,0 km/h (0 Bft) O 90 10 min 1 UV-I 283 W/m 3,2 km/h (1 Bft)
14.08.2010 09:00 16,9 C 85 % 1016,8 hPa 0,0 mm 0,0 km/h (0 Bft) O 90 10 min 1 UV-I 316 W/m 3,2 km/h (1 Bft)
14.08.2010 09:10 17,4 C 83 % 1016,9 hPa 0,0 mm 0,0 km/h (0 Bft) O 90 10 min 2 UV-I 343 W/m 3,2 km/h (1 Bft)
14.08.2010 09:20 17,6 C 83 % 1016,8 hPa 0,0 mm 0,0 km/h (0 Bft) O 90 10 min 2 UV-I 362 W/m 4,8 km/h (1 Bft)
14.08.2010 09:30 18,2 C 81 % 1016,7 hPa 0,0 mm 1,6 km/h (1 Bft) O-NO 67 10 min 2 UV-I 403 W/m 6,4 km/h (2 Bft)
14.08.2010 09:40 19,3 C 79 % 1016,8 hPa 0,0 mm 2,6 km/h (1 Bft) O-NO 74 10 min 2 UV-I 414 W/m 6,4 km/h (2 Bft)
14.08.2010 09:50 19,5 C 80 % 1016,8 hPa 0,0 mm 1,4 km/h (1 Bft) O-NO 74 10 min 2 UV-I 429 W/m 6,4 km/h (2 Bft)
14.08.2010 10:00 19,9 C 78 % 1016,9 hPa 0,0 mm 2,0 km/h (1 Bft) O 79 10 min 2 UV-I 454 W/m 8,0 km/h (2 Bft)
14.08.2010 10:10 20,1 C 77 % 1016,9 hPa 0,0 mm 3,3 km/h (1 Bft) O-SO 122 10 min 3 UV-I 467 W/m 11,3 km/h (2 Bft)
14.08.2010 10:20 20,7 C 75 % 1016,8 hPa 0,0 mm 4,0 km/h (1 Bft) O 93 10 min 3 UV-I 505 W/m 11,3 km/h (2 Bft)
14.08.2010 10:30 21,1 C 70 % 1016,8 hPa 0,0 mm 4,3 km/h (1 Bft) O-NO 76 10 min 3 UV-I 552 W/m 14,5 km/h (3 Bft)
14.08.2010 10:40 21,3 C 71 % 1016,7 hPa 0,0 mm 3,6 km/h (1 Bft) SO 128 10 min 3 UV-I 568 W/m 11,3 km/h (2 Bft)
14.08.2010 10:50 21,4 C 71 % 1016,7 hPa 0,0 mm 4,7 km/h (1 Bft) O-SO 109 10 min 3 UV-I 537 W/m 11,3 km/h (2 Bft)
14.08.2010 11:00 21,8 C 69 % 1016,8 hPa 0,0 mm 4,9 km/h (1 Bft) O-NO 69 10 min 4 UV-I 625 W/m 12,9 km/h (3 Bft)
14.08.2010 11:10 22,2 C 68 % 1016,5 hPa 0,0 mm 4,5 km/h (1 Bft) O-SO 108 10 min 4 UV-I 665 W/m 14,5 km/h (3 Bft)
14.08.2010 11:20 22,0 C 66 % 1016,6 hPa 0,0 mm 4,2 km/h (1 Bft) O 98 10 min 4 UV-I 623 W/m 14,5 km/h (3 Bft)
14.08.2010 11:30 22,0 C 66 % 1016,6 hPa 0,0 mm 5,1 km/h (1 Bft) SO 128 10 min 4 UV-I 694 W/m 11,3 km/h (2 Bft)
14.08.2010 11:40 21,8 C 66 % 1016,6 hPa 0,0 mm 3,7 km/h (1 Bft) N-NO 32 10 min 4 UV-I 524 W/m 11,3 km/h (2 Bft)
14.08.2010 11:50 22,3 C 65 % 1016,8 hPa 0,0 mm 4,8 km/h (1 Bft) O 86 10 min 4 UV-I 678 W/m 14,5 km/h (3 Bft)
14.08.2010 12:00 22,5 C 62 % 1016,6 hPa 0,0 mm 2,9 km/h (1 Bft) NO 36 10 min 5 UV-I 703 W/m 8,0 km/h (2 Bft)
14.08.2010 12:10 22,8 C 62 % 1016,6 hPa 0,0 mm 4,7 km/h (1 Bft) O-NO 74 10 min 5 UV-I 772 W/m 11,3 km/h (2 Bft)
14.08.2010 12:20 22,8 C 61 % 1016,7 hPa 0,0 mm 3,1 km/h (1 Bft) S-SO 153 10 min 5 UV-I 815 W/m 11,3 km/h (2 Bft)
14.08.2010 12:30 23,8 C 60 % 1016,6 hPa 0,0 mm 2,4 km/h (1 Bft) O-SO 104 10 min 6 UV-I 851 W/m 9,7 km/h (2 Bft)
14.08.2010 12:40 23,8 C 57 % 1016,4 hPa 0,0 mm 3,8 km/h (1 Bft) O-SO 109 10 min 5 UV-I 768 W/m 14,5 km/h (3 Bft)
14.08.2010 12:50 24,1 C 58 % 1016,3 hPa 0,0 mm 1,8 km/h (1 Bft) O 99 10 min 6 UV-I 792 W/m 6,4 km/h (2 Bft)
14.08.2010 13:00 24,5 C 55 % 1016,3 hPa 0,0 mm 2,9 km/h (1 Bft) O-SO 114 10 min 6 UV-I 892 W/m 11,3 km/h (2 Bft)
14.08.2010 13:10 24,3 C 56 % 1016,4 hPa 0,0 mm 2,9 km/h (1 Bft) O-NO 68 10 min 6 UV-I 881 W/m 9,7 km/h (2 Bft)
14.08.2010 13:20 23,2 C 57 % 1016,4 hPa 0,0 mm 3,7 km/h (1 Bft) O-NO 69 10 min 4 UV-I 491 W/m 11,3 km/h (2 Bft)
14.08.2010 13:30 22,8 C 58 % 1016,4 hPa 0,0 mm 2,1 km/h (1 Bft) NO 42 0 min 5 UV-I 207 W/m 6,4 km/h (2 Bft)
14.08.2010 13:40 23,6 C 56 % 1016,2 hPa 0,0 mm 3,2 km/h (1 Bft) O-SO 112 10 min 6 UV-I 895 W/m 14,5 km/h (3 Bft)
14.08.2010 13:50 24,9 C 51 % 1016,2 hPa 0,0 mm 3,2 km/h (1 Bft) O 90 10 min 6 UV-I 858 W/m 11,3 km/h (2 Bft)
14.08.2010 14:00 25,1 C 51 % 1016,2 hPa 0,0 mm 3,2 km/h (1 Bft) O-NO 67 10 min 6 UV-I 851 W/m 11,3 km/h (2 Bft)
14.08.2010 14:10 25,2 C 49 % 1016,2 hPa 0,0 mm 3,2 km/h (1 Bft) O-SO 112 10 min 6 UV-I 837 W/m 9,7 km/h (2 Bft)
14.08.2010 14:20 25,3 C 52 % 1016,3 hPa 0,0 mm 1,6 km/h (1 Bft) O 90 10 min 6 UV-I 872 W/m 6,4 km/h (2 Bft)
14.08.2010 14:30 25,7 C 51 % 1016,3 hPa 0,0 mm 3,2 km/h (1 Bft) O 90 10 min 6 UV-I 865 W/m 9,7 km/h (2 Bft)
14.08.2010 14:40 26,2 C 50 % 1016,2 hPa 0,0 mm 3,2 km/h (1 Bft) S 180 10 min 6 UV-I 874 W/m 9,7 km/h (2 Bft)
14.08.2010 14:50 26,1 C 48 % 1015,9 hPa 0,0 mm 1,6 km/h (1 Bft) N 360 10 min 6 UV-I 911 W/m 8,0 km/h (2 Bft)
14.08.2010 15:00 25,8 C 51 % 1015,9 hPa 0,0 mm 3,2 km/h (1 Bft) O 90 10 min 5 UV-I 886 W/m 11,3 km/h (2 Bft)
14.08.2010 15:10 25,4 C 51 % 1015,8 hPa 0,0 mm 3,2 km/h (1 Bft) O 90 0 min 5 UV-I 257 W/m 11,3 km/h (2 Bft)
14.08.2010 15:20 24,7 C 51 % 1015,9 hPa 0,0 mm 3,2 km/h (1 Bft) O-NO 67 10 min 5 UV-I 802 W/m 11,3 km/h (2 Bft)
14.08.2010 15:30 24,4 C 52 % 1015,8 hPa 0,0 mm 3,2 km/h (1 Bft) O-NO 67 10 min 5 UV-I 821 W/m 8,0 km/h (2 Bft)
14.08.2010 15:40 24,9 C 50 % 1015,6 hPa 0,0 mm 4,8 km/h (1 Bft) O 90 10 min 5 UV-I 823 W/m 11,3 km/h (2 Bft)
14.08.2010 15:50 26,1 C 50 % 1015,6 hPa 0,0 mm 3,2 km/h (1 Bft) NO 45 10 min 4 UV-I 793 W/m 11,3 km/h (2 Bft)
14.08.2010 16:00 24,8 C 51 % 1015,6 hPa 0,0 mm 4,9 km/h (1 Bft) O 90 10 min 4 UV-I 691 W/m 8,0 km/h (2 Bft)
14.08.2010 16:10 25,4 C 48 % 1015,6 hPa 0,0 mm 3,2 km/h (1 Bft) O 90 10 min 4 UV-I 708 W/m 9,7 km/h (2 Bft)
14.08.2010 16:20 25,9 C 49 % 1015,6 hPa 0,0 mm 3,2 km/h (1 Bft) O 90 10 min 4 UV-I 726 W/m 17,7 km/h (3 Bft)
14.08.2010 16:30 26,3 C 48 % 1015,4 hPa 0,0 mm 3,2 km/h (1 Bft) O-NO 67 10 min 3 UV-I 696 W/m 9,7 km/h (2 Bft)
14.08.2010 16:40 25,9 C 48 % 1015,3 hPa 0,0 mm 4,8 km/h (1 Bft) O-NO 67 10 min 3 UV-I 638 W/m 16,1 km/h (3 Bft)
14.08.2010 16:50 25,9 C 48 % 1015,4 hPa 0,0 mm 4,8 km/h (1 Bft) O-NO 67 10 min 3 UV-I 631 W/m 16,1 km/h (3 Bft)
14.08.2010 17:00 26,1 C 48 % 1015,4 hPa 0,0 mm 4,8 km/h (1 Bft) NO 45 10 min 3 UV-I 592 W/m 14,5 km/h (3 Bft)
14.08.2010 17:10 26,2 C 47 % 1015,4 hPa 0,0 mm 3,2 km/h (1 Bft) O 90 10 min 3 UV-I 561 W/m 11,3 km/h (2 Bft)
14.08.2010 17:20 26,3 C 47 % 1015,2 hPa 0,0 mm 3,2 km/h (1 Bft) O 90 10 min 2 UV-I 533 W/m 11,3 km/h (2 Bft)
14.08.2010 17:30 26,1 C 47 % 1014,8 hPa 0,0 mm 3,2 km/h (1 Bft) N 360 10 min 2 UV-I 534 W/m 9,7 km/h (2 Bft)
14.08.2010 17:40 26,3 C 46 % 1014,8 hPa 0,0 mm 4,8 km/h (1 Bft) O-NO 67 10 min 2 UV-I 497 W/m 16,1 km/h (3 Bft)
14.08.2010 17:50 25,9 C 49 % 1014,8 hPa 0,0 mm 3,2 km/h (1 Bft) O 90 10 min 2 UV-I 457 W/m 9,7 km/h (2 Bft)
14.08.2010 18:00 26,0 C 48 % 1014,7 hPa 0,0 mm 4,8 km/h (1 Bft) O 90 10 min 2 UV-I 425 W/m 11,3 km/h (2 Bft)
14.08.2010 18:10 25,7 C 50 % 1014,7 hPa 0,0 mm 4,8 km/h (1 Bft) NO 45 10 min 2 UV-I 443 W/m 16,1 km/h (3 Bft)
14.08.2010 18:20 25,4 C 48 % 1014,7 hPa 0,0 mm 3,2 km/h (1 Bft) O 90 10 min 1 UV-I 374 W/m 11,3 km/h (2 Bft)
14.08.2010 18:30 25,2 C 50 % 1014,7 hPa 0,0 mm 1,4 km/h (1 Bft) O-NO 67 10 min 1 UV-I 310 W/m 4,8 km/h (1 Bft)
14.08.2010 18:40 25,4 C 50 % 1014,8 hPa 0,0 mm 3,1 km/h (1 Bft) O-NO 61 10 min 1 UV-I 316 W/m 11,3 km/h (2 Bft)
14.08.2010 18:50 25,2 C 50 % 1014,9 hPa 0,0 mm 1,6 km/h (1 Bft) O-NO 67 10 min 1 UV-I 276 W/m 8,0 km/h (2 Bft)
14.08.2010 19:00 24,9 C 50 % 1015,0 hPa 0,0 mm 1,6 km/h (1 Bft) N-NO 22 10 min 1 UV-I 239 W/m 9,7 km/h (2 Bft)
14.08.2010 19:10 24,5 C 51 % 1015,2 hPa 0,0 mm 3,2 km/h (1 Bft) NO 45 10 min 1 UV-I 220 W/m 11,3 km/h (2 Bft)
14.08.2010 19:20 24,1 C 51 % 1015,2 hPa 0,0 mm 1,6 km/h (1 Bft) O-NO 67 10 min 1 UV-I 190 W/m 9,7 km/h (2 Bft)
14.08.2010 19:30 23,8 C 53 % 1015,1 hPa 0,0 mm 3,2 km/h (1 Bft) N-NO 22 10 min 1 UV-I 178 W/m 9,7 km/h (2 Bft)
14.08.2010 19:40 23,3 C 55 % 1015,2 hPa 0,0 mm 3,2 km/h (1 Bft) O 90 10 min 1 UV-I 155 W/m 11,3 km/h (2 Bft)
14.08.2010 19:50 22,9 C 56 % 1015,2 hPa 0,0 mm 1,6 km/h (1 Bft) NO 45 0 min 0 UV-I 69 W/m 9,7 km/h (2 Bft)
14.08.2010 20:00 22,6 C 57 % 1015,1 hPa 0,0 mm 1,6 km/h (1 Bft) O-NO 67 10 min 0 UV-I 67 W/m 4,8 km/h (1 Bft)
14.08.2010 20:10 22,4 C 58 % 1015,0 hPa 0,0 mm 1,6 km/h (1 Bft) NO 45 10 min 0 UV-I 62 W/m 8,0 km/h (2 Bft)
14.08.2010 20:20 22,0 C 59 % 1014,9 hPa 0,0 mm 0,0 km/h (0 Bft) NO 45 10 min 0 UV-I 49 W/m 4,8 km/h (1 Bft)
14.08.2010 20:30 21,7 C 59 % 1015,0 hPa 0,0 mm 1,6 km/h (1 Bft) NO 45 10 min 0 UV-I 35 W/m 9,7 km/h (2 Bft)
14.08.2010 20:40 21,4 C 60 % 1015,1 hPa 0,0 mm 1,6 km/h (1 Bft) NO 45 0 min 0 UV-I 19 W/m 6,4 km/h (2 Bft)
14.08.2010 20:50 21,1 C 61 % 1015,2 hPa 0,0 mm 0,0 km/h (0 Bft) O 90 0 min 0 UV-I 9 W/m 4,8 km/h (1 Bft)
14.08.2010 21:00 20,7 C 62 % 1015,3 hPa 0,0 mm 0,0 km/h (0 Bft) O-NO 67 0 min 0 UV-I 0 W/m 3,2 km/h (1 Bft)
14.08.2010 21:10 20,3 C 63 % 1015,3 hPa 0,0 mm 0,0 km/h (0 Bft) NO 45 0 min 0 UV-I 0 W/m 4,8 km/h (1 Bft)
14.08.2010 21:20 20,1 C 64 % 1015,3 hPa 0,0 mm 0,0 km/h (0 Bft) NO 45 0 min 0 UV-I 0 W/m 4,8 km/h (1 Bft)
14.08.2010 21:30 19,8 C 64 % 1015,8 hPa 0,0 mm 0,0 km/h (0 Bft) NO 45 0 min 0 UV-I 0 W/m 4,8 km/h (1 Bft)
14.08.2010 21:40 19,5 C 65 % 1015,7 hPa 0,0 mm 0,0 km/h (0 Bft) NO 45 0 min 0 UV-I 0 W/m 6,4 km/h (2 Bft)
14.08.2010 21:50 19,2 C 66 % 1015,8 hPa 0,0 mm 0,0 km/h (0 Bft) NO 45 0 min 0 UV-I 0 W/m 3,2 km/h (1 Bft)
14.08.2010 22:00 18,7 C 68 % 1015,9 hPa 0,0 mm 0,0 km/h (0 Bft) NO 45 0 min 0 UV-I 0 W/m 3,2 km/h (1 Bft)
14.08.2010 22:10 18,3 C 70 % 1015,9 hPa 0,0 mm 0,0 km/h (0 Bft) NO 45 0 min 0 UV-I 0 W/m 1,6 km/h (1 Bft)
14.08.2010 22:20 18,1 C 70 % 1015,9 hPa 0,0 mm 0,0 km/h (0 Bft) NO 45 0 min 0 UV-I 0 W/m 1,6 km/h (1 Bft)
14.08.2010 22:30 17,9 C 72 % 1015,9 hPa 0,0 mm 0,0 km/h (0 Bft) NO 45 0 min 0 UV-I 0 W/m 1,6 km/h (1 Bft)
14.08.2010 22:40 17,6 C 73 % 1015,9 hPa 0,0 mm 0,0 km/h (0 Bft) NO 45 0 min 0 UV-I 0 W/m 3,2 km/h (1 Bft)
14.08.2010 22:50 17,5 C 73 % 1015,8 hPa 0,0 mm 0,0 km/h (0 Bft) NO 45 0 min 0 UV-I 0 W/m 1,6 km/h (1 Bft)
14.08.2010 23:00 17,2 C 75 % 1015,7 hPa 0,0 mm 0,0 km/h (0 Bft) NO 45 0 min 0 UV-I 0 W/m 1,6 km/h (1 Bft)
14.08.2010 23:10 16,9 C 76 % 1015,7 hPa 0,0 mm 0,0 km/h (0 Bft) NO 45 0 min 0 UV-I 0 W/m 3,2 km/h (1 Bft)
14.08.2010 23:20 16,8 C 76 % 1015,6 hPa 0,0 mm 0,0 km/h (0 Bft) NO 45 0 min 0 UV-I 0 W/m 1,6 km/h (1 Bft)
14.08.2010 23:30 16,6 C 78 % 1015,6 hPa 0,0 mm 0,0 km/h (0 Bft) NO 45 0 min 0 UV-I 0 W/m 1,6 km/h (1 Bft)
14.08.2010 23:40 16,2 C 79 % 1015,6 hPa 0,0 mm 0,0 km/h (0 Bft) NO 45 0 min 0 UV-I 0 W/m 1,6 km/h (1 Bft)
14.08.2010 23:50 15,9 C 79 % 1015,6 hPa 0,0 mm 0,0 km/h (0 Bft) N 0 0 min 0 UV-I 0 W/m 0,0 km/h (0 Bft)
_ Min-Zeit 07:00 17:40 18:00 - 00:00 - - - - - 00:00
Minimum _ 12,0 C 46 % 1014,7 hPa - 0,0 km/h (0 Bft) - - - - - 0,0 km/h (0 Bft)
_ Max-Zeit 14:50 06:30 07:50 00:00 11:30 - - 07:50 13:50 14:50 16:20
Maximum _ 26,7 C 93 % 1016,9 hPa 0,0 mm 5,1 km/h
SO (1 Bft)
- - 10 min 6 UV-I 911 W/m 17,7 km/h
N (3 Bft)
Durchschnitt _ 19,2 C 72 % 1016,1 hPa #0,0 mm 1,5 km/h (1 Bft) O-NO - #12:20 h 3 UV-I 467 W/m 5,7 km/h (1 Bft)